sat.trackr.live / text

‹ back to catalog

STARLINK-6226

NORAD 56544 · 2023-065AT

PAYLOAD ACTIVE UNKNOWN

§ Identity

Operator
Country
US
Launch date
2023-05-14
Launch site
AFETR
Launch vehicle
Mass (kg)
RCS (m²)

Purposes: comms

External: N2YO · Heavens-Above · Gunter

§ Orbital elements

Epoch: 2026-05-24T17:10:51.924864Z

Period
94.27 min
Inclination
43.0004°
Eccentricity
0.0001014
Mean motion
15.27577312 rev/d
Perigee alt
482.4 km
Apogee alt
483.8 km
Semi-major
6,861.2 km
B*
3.7446e-6
RAAN
153.8721°
Arg perigee
274.7887°
Mean anomaly
85.2849°
Rev number
16,810

§ Raw data

STARLINK-62261 56544U 23065AT  26144.71587876 -.00000159  00000+0  37446-5 0  99902 56544  43.0004 153.8721 0001014 274.7887  85.2849 15.27577312168105

JSON: /api/v1/satellites/56544 · /tle

For live sub-satellite position, see the globe view (requires WebGL).

§ Visibility from observer

Set your observer location to see the next 7 days of passes ≥ 10°. The values pass through the URL so the page stays shareable.

No JS? Fill the form by hand. The geolocation button needs JavaScript.